Wind_Speed
20 19 17 15 14 14 13 14 15 15 15 15 14 14 15 16 14 15 17 17 17 17 18 20 18 18 19 19 19 18 18 17 17 17 17 17 18 19 19 19 18 18 16 15
21 19 17 17 15 15 15 15 14 15 14 14 15 14 15 16 16 16 18 18 18 18 19 19 17 19 18 19 19 19 18 17 17 17 17 18 18 19 20 20 19 18 17 16
20 16 18 18 17 17 17 17 15 15 14 14 15 15 16 17 17 16 16 17 18 18 18 18 18 17 16 17 17 17 18 18 18 18 17 17 18 19 20 20 20 19 18 17
20 18 18 18 18 17 17 16 16 16 16 15 16 17 17 17 18 16 15 15 17 18 17 16 17 16 16 16 16 15 17 17 17 18 17 18 20 20 20 21 21 20 19 18
19 19 20 19 18 18 17 15 16 17 18 18 18 17 17 17 17 17 16 14 17 17 16 17 17 16 15 15 14 14 17 17 17 18 18 19 20 20 21 21 20 20 19 18
19 19 19 19 18 18 17 17 17 16 16 17 16 16 16 17 17 16 14 14 17 17 16 16 15 15 13 12 13 13 15 16 16 18 19 18 19 20 20 21 20 20 19 19
19 19 18 18 18 18 18 17 16 16 16 16 16 17 17 15 15 16 17 17 17 16 15 15 14 12 10 10 11 11 12 13 14 16 18 18 18 20 20 20 20 20 20 19
16 17 18 18 18 18 18 17 17 16 16 16 18 17 14 12 15 17 18 19 18 16 14 13 12 11 9 9 9 9 9 10 12 15 16 17 17 18 19 20 20 20 20 20
14 15 16 18 17 18 18 18 17 17 18 17 15 12 14 12 13 16 17 17 16 14 13 11 10 9 9 9 8 7 8 9 11 13 15 16 17 18 19 19 19 19 19 19
18 16 16 18 18 18 19 17 17 19 19 17 15 12 12 11 12 14 15 15 14 12 12 10 8 7 7 8 7 7 6 8 10 12 13 15 17 18 18 19 19 19 19 19
22 19 16 18 19 18 19 19 19 17 18 17 16 15 14 12 13 13 14 14 13 12 12 10 7 7 7 6 6 6 6 7 9 10 11 13 15 16 17 18 19 18 18 18
23 21 19 19 19 18 19 20 21 20 20 19 18 20 18 14 14 12 13 14 12 13 11 10 8 7 7 6 5 5 5 5 7 8 10 11 13 14 15 16 17 17 18 18
24 24 23 21 21 20 20 20 22 22 21 19 18 19 18 15 15 11 13 14 15 14 13 11 9 8 8 7 5 4 4 4 5 5 7 10 11 12 13 15 16 17 17 18
26 27 25 22 22 22 21 21 21 21 21 19 19 20 21 18 17 13 15 17 14 14 14 13 11 10 8 7 6 4 3 3 4 5 7 10 11 12 13 14 15 17 17 18
28 27 27 26 24 22 21 20 21 22 21 21 23 22 21 20 19 16 17 17 15 15 14 14 13 11 9 8 7 5 4 3 3 5 6 8 10 11 11 12 13 16 16 16
30 29 28 27 25 23 21 21 21 21 20 22 22 23 22 21 20 20 18 18 18 16 15 14 13 12 11 10 8 7 6 6 6 5 7 8 9 11 12 12 13 15 16 17
30 30 29 27 24 25 22 20 21 20 21 23 24 25 25 24 23 24 23 20 19 18 17 16 14 13 12 12 11 10 9 9 9 9 9 10 11 12 13 14 14 15 16 17
29 29 29 26 26 26 23 24 23 23 24 24 28 29 28 28 27 27 25 22 20 20 18 17 16 15 14 13 13 13 12 11 11 12 12 11 12 13 15 16 16 17 17 18
29 28 28 28 26 26 26 25 24 24 25 25 27 27 27 27 27 27 25 22 21 21 20 19 18 17 16 16 16 15 15 14 14 14 14 14 14 15 16 17 17 18 19 20
28 28 30 30 29 29 28 27 26 27 29 27 27 27 27 27 27 27 25 24 24 23 22 21 20 19 18 18 17 17 17 16 16 16 16 16 17 17 18 19 18 20 21 22
27 28 29 29 29 30 32 29 28 28 28 27 27 26 26 26 24 25 26 26 25 25 23 23 22 21 20 20 19 19 18 18 18 17 18 18 19 19 19 20 21 21 22 23
27 28 29 29 30 33 31 28 29 27 25 25 25 26 26 25 24 25 25 26 26 25 24 24 24 23 22 21 21 20 20 20 20 20 20 20 20 20 21 21 21 22 23 24
26 27 28 29 30 30 27 25 24 24 23 23 23 23 25 25 25 25 24 25 25 26 26 25 25 24 24 24 23 22 22 22 22 22 22 21 22 23 23 23 24 25 26 26
27 26 27 28 28 26 24 25 24 24 24 24 24 24 25 26 25 24 23 24 24 25 25 25 25 25 25 25 25 24 23 23 24 24 24 24 24 24 25 25 26 28 28 29
26 28 27 26 26 25 23 24 24 22 22 23 23 23 23 23 24 23 23 23 23 23 24 24 24 24 25 25 25 25 24 25 25 26 27 27 26 26 27 27 27 28 29 30
24 23 24 23 22 22 23 23 23 22 21 22 22 22 22 23 23 22 21 21 22 22 21 21 22 22 23 24 25 25 24 25 25 25 26 27 27 28 29 29 29 30 30 30
Wind_Direction
252 251 251 249 249 244 236 240 248 248 246 251 258 261 265 272 273 283 291 295 294 293 293 293 290 284 281 279 278 277 271 263 255 252 246 238 234 232 230 228 230 230 230 232
248 249 247 242 241 243 242 238 242 249 248 254 259 260 261 269 278 283 291 295 294 293 294 297 292 290 284 281 276 272 266 260 257 251 245 238 231 229 229 229 228 227 228 228
247 244 245 241 236 238 238 235 236 245 249 256 264 266 261 263 266 271 286 296 296 298 297 302 300 293 289 284 276 267 260 257 253 248 242 234 229 230 229 229 227 226 225 227
241 236 240 242 239 238 235 232 232 240 249 255 261 265 265 271 274 272 282 292 300 301 297 300 300 294 288 283 278 264 254 252 248 242 239 235 233 231 231 231 229 226 226 227
239 237 236 239 236 234 229 230 235 239 244 243 249 258 265 274 281 286 293 298 300 299 299 299 300 296 289 282 276 261 251 250 244 238 238 236 234 232 230 229 228 226 226 227
231 237 240 237 235 232 227 230 235 240 240 246 250 254 263 272 284 292 294 297 299 298 299 301 300 296 291 283 273 262 252 246 239 234 235 239 236 234 231 229 226 225 226 228
230 230 237 236 230 231 227 229 235 244 245 250 246 245 254 271 285 289 289 290 297 298 299 302 301 296 285 277 278 267 255 244 236 234 235 235 234 233 229 225 222 223 226 228
234 230 231 235 228 224 228 226 231 240 253 248 242 237 237 257 276 283 286 288 293 297 297 300 300 294 282 276 275 273 254 239 236 236 236 231 229 227 224 221 218 219 224 225
223 236 235 236 230 221 223 225 231 243 252 257 262 247 233 245 267 282 290 290 291 294 298 299 300 294 281 278 272 269 253 239 235 235 233 227 224 222 219 218 216 219 220 221
206 222 226 231 232 227 223 228 231 237 251 265 274 269 254 249 271 281 295 297 294 295 297 297 301 301 289 279 270 269 257 242 239 237 230 222 219 218 216 213 215 218 219 220
206 212 217 224 231 225 223 219 230 233 235 252 263 260 255 255 263 273 286 291 290 294 293 293 301 307 303 276 266 263 258 247 241 234 222 214 214 214 213 211 213 216 217 218
212 211 216 222 231 227 227 225 228 234 236 238 252 269 265 259 254 261 278 285 283 291 291 292 296 306 313 300 273 262 254 248 242 228 215 212 213 210 211 211 212 216 217 218
216 215 217 221 225 227 225 228 229 232 238 241 247 262 267 270 269 264 272 286 288 286 285 286 290 298 305 312 312 292 270 256 229 219 210 206 207 212 215 215 215 217 220 223
216 219 214 222 224 225 226 227 227 229 236 243 245 256 263 265 264 263 269 276 281 281 281 282 282 286 291 297 302 298 286 252 227 220 218 216 217 220 220 219 220 222 224 226
218 221 218 221 229 228 228 222 224 229 233 242 244 250 261 262 263 262 264 269 276 277 276 278 277 276 280 284 286 286 273 257 236 226 222 218 216 216 217 220 223 225 225 228
222 220 221 224 232 235 230 218 220 228 235 241 248 256 255 260 260 262 265 266 270 270 271 274 273 273 273 273 275 271 266 263 254 244 233 226 222 219 223 227 230 230 231 234
224 223 221 225 228 237 239 230 229 230 236 242 246 250 253 255 258 262 264 265 264 264 266 268 268 268 269 268 267 267 262 260 256 253 248 239 235 233 233 237 238 238 238 240
224 225 223 225 227 233 234 235 235 235 238 241 246 250 253 256 257 260 260 260 260 260 262 262 263 262 263 265 267 268 264 260 257 251 249 248 246 242 241 244 246 245 246 247
224 226 225 225 230 233 235 238 238 238 243 243 250 251 253 254 257 259 258 258 259 260 261 261 261 260 262 264 264 265 264 261 259 254 252 254 255 252 249 250 251 250 250 252
225 225 226 227 229 231 234 235 237 243 249 252 254 255 257 257 257 257 258 258 257 257 258 259 259 260 260 262 262 263 263 262 260 256 258 259 262 262 257 255 254 253 253 255
226 227 227 229 232 235 236 236 240 244 248 251 254 258 259 259 258 258 258 258 256 256 257 257 257 259 261 262 262 262 261 259 260 259 260 262 264 265 265 261 257 259 260 260
226 228 230 232 235 238 241 242 244 246 249 250 253 255 255 256 258 259 259 257 256 257 257 258 257 257 259 260 260 262 260 259 260 261 260 262 265 268 268 265 265 264 265 264
229 228 229 233 239 245 246 245 244 248 252 253 254 254 255 257 259 259 259 257 257 257 257 257 256 256 257 258 258 260 261 261 262 263 263 262 266 269 269 269 269 269 268 268
229 232 234 236 239 242 246 248 250 253 254 256 256 257 258 258 259 259 259 258 258 258 258 256 255 255 256 257 257 259 261 262 262 263 264 265 267 270 273 273 271 271 273 273
228 230 234 237 240 244 249 251 252 253 253 252 254 257 257 258 258 257 257 258 257 257 256 255 254 254 254 256 257 258 260 263 264 264 265 266 268 271 272 273 275 274 275 275
225 228 231 237 243 246 249 251 252 253 252 250 252 254 254 257 257 255 255 255 254 254 254 254 253 255 256 257 258 259 261 263 265 266 266 266 269 271 271 272 274 275 276 277
Height
5840 5843 5845 5847 5849 5851 5853 5855 5857 5857 5857 5857 5858 5858 5858 5855 5854 5853 5851 5851 5850 5848 5847 5845 5844 5844 5844 5843 5843 5844 5844 5845 5846 5848 5850 5853 5857 5860 5863 5866 5868 5871 5873 5876
5836 5839 5841 5842 5844 5847 5849 5851 5853 5854 5854 5854 5855 5855 5854 5852 5851 5850 5849 5848 5847 5845 5843 5840 5839 5839 5839 5838 5838 5839 5840 5841 5843 5845 5847 5850 5853 5856 5859 5863 5866 5868 5871 5873
5831 5835 5836 5838 5840 5843 5845 5848 5850 5851 5851 5852 5852 5852 5850 5849 5848 5845 5845 5844 5842 5841 5840 5838 5836 5834 5834 5834 5834 5834 5835 5837 5839 5841 5843 5846 5849 5852 5856 5860 5863 5865 5868 5871
5826 5830 5832 5834 5836 5839 5841 5844 5846 5847 5848 5848 5849 5848 5845 5845 5843 5840 5840 5840 5839 5838 5836 5835 5833 5831 5831 5830 5829 5829 5831 5833 5834 5837 5839 5842 5846 5849 5853 5856 5859 5862 5865 5868
5823 5825 5827 5830 5833 5835 5837 5840 5842 5843 5843 5844 5844 5843 5842 5840 5839 5836 5835 5834 5836 5835 5833 5831 5830 5828 5827 5826 5825 5826 5827 5828 5830 5832 5835 5839 5842 5845 5848 5852 5856 5859 5862 5865
5819 5821 5823 5826 5829 5831 5833 5836 5837 5838 5839 5840 5840 5840 5839 5836 5836 5834 5833 5833 5833 5832 5830 5828 5826 5824 5823 5823 5822 5822 5823 5824 5827 5829 5831 5834 5838 5841 5844 5848 5852 5856 5859 5862
5814 5817 5820 5822 5825 5827 5830 5833 5834 5835 5835 5836 5836 5836 5836 5834 5834 5833 5832 5831 5831 5829 5827 5826 5823 5821 5821 5821 5820 5820 5820 5821 5823 5825 5828 5831 5833 5837 5840 5844 5848 5852 5856 5859
5811 5814 5817 5818 5820 5824 5826 5829 5831 5832 5832 5831 5830 5830 5831 5831 5832 5831 5831 5830 5828 5826 5825 5823 5821 5820 5819 5819 5818 5818 5818 5819 5821 5823 5825 5828 5830 5833 5837 5841 5844 5848 5852 5855
5808 5811 5814 5815 5817 5820 5822 5824 5828 5829 5827 5826 5825 5825 5826 5827 5829 5828 5828 5827 5825 5824 5823 5822 5820 5818 5817 5817 5816 5816 5816 5817 5818 5820 5822 5825 5827 5830 5834 5838 5841 5845 5849 5852
5804 5808 5810 5812 5814 5816 5819 5822 5824 5825 5825 5824 5823 5823 5821 5822 5824 5824 5824 5824 5822 5821 5821 5820 5819 5817 5817 5816 5815 5815 5815 5816 5817 5818 5820 5822 5825 5828 5831 5835 5839 5843 5846 5849
5799 5803 5807 5809 5810 5813 5815 5818 5819 5821 5822 5823 5822 5822 5819 5819 5821 5821 5821 5821 5820 5820 5819 5819 5818 5817 5815 5814 5814 5814 5814 5815 5816 5817 5819 5821 5824 5827 5830 5833 5837 5840 5843 5846
5795 5799 5802 5804 5807 5809 5811 5813 5815 5817 5818 5818 5819 5820 5815 5816 5817 5817 5817 5817 5818 5818 5817 5817 5816 5816 5814 5813 5813 5813 5814 5814 5815 5816 5818 5820 5823 5825 5828 5831 5835 5838 5841 5844
5790 5794 5797 5800 5803 5805 5806 5809 5811 5813 5814 5815 5816 5817 5812 5814 5813 5812 5814 5814 5815 5816 5816 5816 5815 5814 5814 5813 5812 5813 5813 5814 5815 5816 5817 5819 5822 5825 5827 5830 5833 5836 5839 5841
5785 5788 5792 5796 5797 5798 5801 5803 5805 5808 5810 5811 5812 5811 5810 5810 5810 5809 5811 5812 5812 5813 5814 5814 5814 5813 5812 5813 5813 5813 5814 5814 5815 5816 5817 5819 5821 5823 5826 5829 5831 5834 5836 5839
5779 5782 5786 5788 5789 5792 5794 5797 5801 5803 5805 5807 5807 5807 5806 5806 5806 5806 5807 5807 5809 5811 5811 5812 5812 5812 5811 5812 5812 5813 5813 5814 5815 5816 5817 5818 5820 5822 5824 5826 5828 5831 5833 5835
5772 5776 5780 5783 5785 5786 5789 5792 5795 5798 5800 5801 5801 5801 5801 5802 5802 5802 5802 5804 5806 5808 5809 5810 5810 5810 5810 5811 5811 5812 5813 5814 5814 5815 5816 5817 5819 5820 5822 5824 5826 5828 5830 5832
5765 5770 5774 5777 5780 5781 5784 5787 5790 5792 5794 5796 5796 5795 5796 5798 5799 5799 5800 5800 5803 5805 5806 5807 5807 5808 5808 5809 5809 5810 5811 5812 5813 5814 5815 5816 5817 5818 5820 5822 5824 5825 5827 5829
5759 5763 5768 5772 5775 5776 5781 5781 5783 5786 5788 5788 5788 5789 5791 5793 5794 5795 5796 5797 5798 5800 5802 5804 5804 5805 5806 5806 5807 5808 5809 5810 5811 5812 5813 5814 5814 5815 5817 5818 5820 5822 5823 5825
5753 5757 5762 5766 5768 5771 5774 5775 5778 5780 5779 5780 5781 5784 5786 5787 5788 5789 5790 5792 5794 5796 5798 5799 5800 5801 5803 5803 5804 5805 5806 5807 5808 5808 5809 5810 5811 5812 5813 5814 5815 5817 5818 5820
5747 5752 5756 5759 5762 5764 5766 5767 5770 5774 5774 5774 5776 5778 5780 5781 5783 5785 5785 5788 5790 5792 5793 5795 5796 5797 5798 5800 5800 5801 5802 5803 5804 5804 5805 5806 5807 5808 5809 5809 5810 5811 5812 5814
5742 5746 5749 5752 5755 5757 5758 5761 5765 5768 5768 5769 5771 5772 5774 5775 5777 5779 5781 5783 5785 5786 5788 5789 5791 5792 5793 5795 5796 5797 5798 5799 5800 5800 5801 5802 5802 5802 5803 5804 5805 5806 5806 5807
5736 5740 5743 5746 5749 5751 5752 5755 5759 5760 5762 5763 5765 5766 5768 5769 5771 5773 5775 5777 5779 5780 5782 5783 5785 5787 5788 5789 5791 5792 5793 5794 5795 5796 5796 5797 5797 5797 5798 5799 5799 5800 5800 5801
5730 5734 5737 5740 5743 5744 5746 5749 5751 5753 5755 5756 5758 5760 5762 5763 5765 5767 5769 5771 5772 5774 5776 5777 5779 5781 5782 5784 5785 5786 5788 5789 5789 5790 5791 5791 5792 5792 5792 5793 5794 5794 5794 5794
5725 5728 5731 5733 5735 5738 5741 5743 5745 5747 5749 5751 5752 5754 5755 5757 5759 5761 5763 5764 5766 5767 5769 5771 5773 5774 5776 5777 5779 5780 5781 5783 5783 5784 5785 5785 5786 5786 5786 5787 5787 5787 5787 5786
5719 5722 5725 5727 5730 5733 5735 5738 5740 5742 5743 5745 5747 5748 5750 5751 5753 5755 5757 5758 5760 5761 5763 5765 5766 5768 5770 5771 5773 5774 5775 5776 5777 5777 5778 5778 5779 5779 5780 5779 5779 5779 5779 5779
5713 5716 5719 5722 5725 5728 5731 5733 5735 5736 5738 5740 5742 5743 5744 5746 5748 5749 5751 5753 5754 5756 5757 5759 5761 5762 5763 5765 5766 5767 5768 5769 5770 5770 5771 5771 5772 5772 5772 5772 5772 5771 5771 5771